Tracking 19242 objects as of 15-Aug-2018
HD Live streaming from Space Station
objects crossing your sky now

FENGYUN 1C DEB

Track FENGYUN 1C DEB now!
10-day predictions


NORAD ID: 30078
Int'l Code: 1999-025QF
Perigee: 829.0 km
Apogee: 915.4 km
Inclination: 99.0 °
Period: 102.2 minutes
Semi major axis: 7243 km
RCS: 0.1198 m2 (medium)
Launch date: May 10, 1999
Source: People's Republic of China (PRC)
Launch site: Taiyaun Space Center, China (TSC)

Note: This is SATELLITE DEBRIS
aabbcc
Your satellite tracking list
Your tracking list is empty




NASA's NSSDC Master Catalog

Two Line Element Set (TLE):
1 30078U 99025QF  18226.88239213 +.00000888 +00000-0 +53681-3 0  9998
2 30078 099.0424 272.2542 0059646 287.9923 123.5024 14.08347864593214
Source of the keplerian elements: AFSPC